Lid_Strength_Index
1 -0 -1 -1 -1 -1 -1 -1 -1 -1 -1 -1 -1 -2 -1 -1 -2 -2 -2 -2 -2 -2 -2 -2 -2 -2 -2 -2 -2 -2 -2 -2 -2 -2 -2 -2 -2 -2 -2 -1 -3 -1 -2
0 -0 -1 -1 -1 -1 -1 -1 -1 -2 -1 -1 -1 -2 -1 -1 -1 -2 -2 -2 -2 -2 -2 -2 -2 -2 -1 -1 -2 -2 -1 -1 -2 -2 -2 -2 -2 -2 -2 -2 -3 -1 -1
0 -1 -1 -1 -2 -1 -1 -1 -2 -2 -1 -1 -1 -1 -1 -1 -2 -2 -2 -2 -2 -2 -2 -2 -2 -2 -1 -1 -1 -1 -2 -2 -2 -3 -2 -0 -0 -2 -2 -2 -2 -2 -1
-0 -0 -1 -1 -1 -1 -2 -2 -1 -1 -1 -1 -1 -1 -1 -1 -1 -2 -2 -2 -2 -1 -1 -2 -2 -1 -1 -1 -1 -1 -1 -1 -2 -2 -0 -1 -1 -2 -1 -1 -1 -2 -1
0 -1 -1 -1 -1 -1 -2 -2 -1 -1 -1 -1 -1 -1 -1 -1 -1 -2 -2 -2 -2 -1 -1 -2 -1 -1 -1 -1 -1 -1 -1 -1 -3 -1 1 1 0 -1 -1 -1 -1 -1 -1
0 -0 -1 -1 -1 -1 -2 -2 -1 -1 -1 -1 -1 -1 -1 -1 -1 -2 -2 -2 -3 -1 -1 -2 -1 -1 -1 -1 -1 -1 -1 -1 -3 0 0 0 -0 -2 -1 -1 -1 -1 -1
1 -0 -1 -1 -1 -1 -1 -1 -1 -1 -1 -1 -1 -1 -1 -1 -2 -2 -2 -2 -3 -1 -1 -1 -1 -1 -1 -1 -1 -1 -1 -1 -0 1 0 0 -0 -2 -1 -1 -1 -1 -1
1 -0 -1 0 -0 -1 -1 -1 -2 -2 -2 -2 -2 -2 -1 -2 -2 -2 -2 -2 -2 -2 -1 -1 -1 -1 -1 -1 -1 -1 -2 -2 -1 0 0 0 -2 -2 -1 -1 -1 -1 -1
0 0 -0 -1 -0 1 -0 -1 -1 -2 -2 -2 -2 -2 -2 -1 -2 -2 -2 -2 -2 -2 -1 -1 -1 -1 -0 -1 -1 -1 -1 -1 1 0 -0 0 -3 -2 -1 -1 -1 -1 -1
1 0 0 -0 -0 -1 -0 0 -0 -1 -1 -1 -1 -1 -1 -1 -0 -1 -1 -1 -3 -2 -2 -2 -2 -1 -1 -1 -1 -0 -0 -0 1 0 1 0 -2 -2 -2 -2 -2 -2 -2
1 1 1 0 0 -0 -0 0 1 0 -0 -0 -0 0 0 -0 -0 0 0 -1 -2 -1 -1 -2 -2 -2 -2 -1 -1 -0 0 2 2 1 1 -1 -2 -2 -2 -2 -2 -2 -2
2 1 1 1 0 -0 -0 0 -0 -0 -0 -0 -0 -0 -0 0 0 -0 1 0 -0 0 -1 -2 -1 -1 0 0 0 0 1 2 3 2 2 -1 -2 -2 -2 -2 -2 -2 -2
3 2 1 1 1 0 0 0 0 -0 -0 -0 -0 0 -0 0 0 1 1 1 1 1 1 -0 0 0 1 1 1 1 1 2 3 3 2 -1 -2 -2 -2 -2 -2 -2 -2
3 2 1 1 1 1 0 -0 0 0 -0 -0 -0 -0 0 1 0 1 1 1 1 1 1 1 1 0 1 1 1 2 2 3 3 2 2 1 -1 -2 -2 -2 -2 -2 -2
3 3 2 1 1 1 1 1 0 0 0 0 -0 0 -0 0 0 0 1 1 1 1 1 1 1 1 1 1 1 1 1 2 2 3 2 2 0 -2 -2 -2 -2 -2 -2
3 4 2 1 1 1 1 1 1 1 -0 0 0 0 0 0 -0 0 0 0 0 1 1 1 1 1 1 1 1 1 1 1 1 1 2 2 1 -0 -2 -2 -2 -2 -2
3 3 2 1 1 1 1 1 1 1 0 -0 -0 -0 -0 -0 1 0 1 0 0 0 1 1 1 1 1 1 1 1 1 1 1 1 1 1 1 2 0 -1 -2 -2 -2
3 3 3 2 1 1 1 1 1 1 1 1 -0 -0 -0 -0 -0 0 1 0 0 1 0 1 1 1 1 2 2 2 1 1 0 1 1 1 1 1 1 -0 -1 -2 -2
4 4 3 3 3 3 1 1 1 1 1 1 1 -0 -0 0 0 -0 0 1 0 0 1 1 1 2 2 1 1 2 1 1 0 0 1 1 1 1 1 1 1 0 -1
5 4 4 3 2 1 2 1 1 1 1 1 1 0 0 -0 -0 0 1 1 1 1 1 1 1 1 1 1 1 2 1 1 1 1 1 0 0 1 1 1 1 2 1
6 6 5 4 3 2 2 2 2 2 2 1 1 0 0 1 0 0 1 1 0 1 1 1 1 1 1 1 2 2 1 1 1 1 1 0 1 0 0 0 0 0 0
7 7 7 6 5 5 4 3 2 2 2 3 2 4 3 1 1 1 1 0 0 1 1 1 2 2 2 1 3 3 5 3 2 1 1 1 1 0 1 0 0 0 0
9 9 8 8 7 6 4 4 1 1 4 5 5 5 4 3 5 5 4 3 3 2 2 1 1 1 3 1 1 3 6 7 4 2 2 1 1 2 1 1 1 1 0
10 9 9 9 8 7 6 4 4 4 6 5 6 6 4 5 7 7 6 5 4 2 4 3 2 2 2 3 2 1 1 2 5 6 3 2 1 1 1 1 1 1 1
11 11 11 10 10 10 9 8 8 8 8 8 8 8 7 7 7 8 6 6 6 5 5 4 4 3 2 2 2 2 3 2 2 4 6 4 2 2 1 1 1 1 1
12 12 12 12 11 11 11 11 10 10 11 11 10 10 9 8 8 9 8 8 7 7 7 6 6 4 4 4 3 2 2 3 4 4 5 4 4 2 2 1 1 1 1